User: anonymous   Login
Location: Prague
(50.0830°N, 14.4670°E)
Time: 02:07:28
(UTC+01:00)
Language:

DIWATA 2B (PO-101) - Orbit

View from above orbital plane
View from above orbital plane
View from above satellite
View from above satellite

Ground track
Ground track

The orbit data is extracted from the following two-line orbital elements,

1 43678U 18084H   21340.50013110 -.00000070  00000-0 -11799-5 0  9991
2 43678  97.9458 106.9092 0009244 195.7990 164.2938 14.91842256169087
Epoch (UTC): 06 December 2021 12:00:11
Eccentricity: 0.0009244
inclination: 97.9458°
perigee height: 586 km
apogee height: 598 km
right ascension of ascending node: 106.9092°
argument of perigee: 195.7990°
revolutions per day: 14.91842256
mean anomaly at epoch: 164.2938°
orbit number at epoch: 16908

The dashed part of the orbit path shows where the satellite is in the earth's shadow,  

DLR